Regional Weather Roundup
Issued by NWS

Home | Current Version | Previous Version | Text Only | Print | Product List | Glossary Off
Versions: 1 2 3 4 5 6 7 8 9 10 11 12 13 14 15 16 17 18 19 20 21 22 23 24 25 26 27 28 29 30 31 32 33 34 35 36 37 38 39 40 41 42 43 44 45 46 47 48 49 50

000
ASUS43 KMKX 042021
RWRWI

WISCONSIN REGIONAL WEATHER ROUNDUP
NATIONAL WEATHER SERVICE MILWAUKEE/SULLIVAN WI
200 PM CST SUN DEC 04 2016

NOTE: "FAIR" INDICATES FEW OR NO CLOUDS BELOW 12,000 FEET WITH NO
SIGNIFICANT WEATHER AND/OR OBSTRUCTIONS TO VISIBILITY.

WIZ001-002-006>008-014>016-023>028-042100-
NORTHWEST WISCONSIN

CITY           SKY/WX    TMP DP  RH WIND       PRES   REMARKS
SUPERIOR ARPT  CLOUDY    33  31  90 S7        29.77F WCI  27
ASHLAND        LGT SNOW  32  29  88 S8        29.81F FOG     WCI  25
HAYWARD        CLOUDY    32  28  85 S7        29.78F WCI  26
SIREN          CLOUDY    32  32  97 S8        29.77F WCI  25
CUMBERLAND     CLOUDY    32  30  93 S12       29.77F FOG     WCI  23
RICE LAKE      CLOUDY    32  31  96 SE9       29.81F FOG     WCI  24
CHETEK         CLOUDY    32  31  96 S7        29.80F FOG     WCI  26
LADYSMITH      LGT SNOW  32  31  94 S8        29.83F WCI  25
EAU CLAIRE     LGT SNOW  32  31  96 S10       29.81F FOG     WCI  24
MENOMONIE      CLOUDY    33  33  96 SE7       29.81F FOG     WCI  27
NEW RICHMOND   CLOUDY    33  33 100 S10       29.78F FOG     WCI  25
OSCEOLA        CLOUDY    34  34 100 S7        29.81F FOG     WCI  28
$$

WIZ003>005-009-010-017-018-042100-
NORTH CENTRAL WISCONSIN

CITY           SKY/WX    TMP DP  RH WIND       PRES   REMARKS
MANITOWISH WTR LGT SNOW  29  29 100 S9G17     29.81F WCI  20
ARBOR VITAE    LGT SNOW  32  30  92 SE7G17    29.82F WCI  25
WOODRUFF       LGT SNOW  32  30  92 SE7G17    29.82F WCI  25
RHINELANDER    LGT SNOW  30  27  88 SE8       29.84F VSB 1   WCI  22
EAGLE RIVER    LGT SNOW  29  28  95 S7        29.84F WCI  22
LAND O LAKES   LGT SNOW  30  28  93 SE7       29.85F WCI  23
PHILLIPS       LGT SNOW  29  28  96 S8        29.80F WCI  22
TOMAHAWK       LGT SNOW  29  27  92 SE3       29.84F VSB 1
MEDFORD        LGT SNOW  29  28  94 S10G17    29.82F VSB 1   WCI  20
MERRILL        LGT SNOW  30  29  97 S6        29.86F VSB 1   WCI  24
$$

WIZ029-030-035-036-043>047-042100-
CENTRAL WISCONSIN

CITY           SKY/WX    TMP DP  RH WIND       PRES   REMARKS
WAUSAU         SNOW      29  28  96 SE13      29.86F VSB 1/2 WCI  19
MOSINEE        LGT SNOW  28  28 100 SE12G17   29.88F VSB 1   WCI  18
MARSHFIELD     SNOW      30  28  92 S12       29.84F VSB 1/2 WCI  20
STEVENS POINT  MIX PCPN  28  28 100 S5        29.89F VSB 3/4 WCI  23
WAUPACA        LGT SNOW  33  31  91 CALM      29.92F VSB 3/4
WAUTOMA        LGT SNOW  31  30  96 S6        29.92F VSB 1   WCI  25
WISC RAPIDS    LGT SNOW  31  30  96 SE9       29.89F VSB 3/4 WCI  23
CAMP DOUGLAS   LGT SNOW  32  30  93 SE8       29.87  FOG     WCI  25
$$

WIZ011>013-019>022-031-037>040-048>050-042100-
NORTHEAST WISCONSIN

CITY           SKY/WX    TMP DP  RH WIND       PRES   REMARKS
ANTIGO         LGT SNOW  28  28  96 S13       29.87F VSB 1   WCI  18
SHAWANO        MIX PCPN  33  31  93 S3        29.93F
OCONTO         CLOUDY    31  30  95 S3        29.95F
STURGEON BAY   LGT SNOW  32  28  86 CALM      29.95F VSB 3/4
GREEN BAY      SNOW      32  32 100 S5        29.94F VSB 1/2 WCI  27
MANITOWOC      LGT SNOW  34  30  86 MISG      29.94F VSB 3/4
APPLETON       LGT SNOW  30  30 100 S6        29.93F VSB 1   WCI  24
CLINTONVILLE   LGT SNOW  32  30  93 S6        29.93F WCI  26
OSHKOSH        SNOW      31  29  92 S5        29.92F VSB 1/4 WCI  26
$$

WIZ032>034-041-042-053>061-042100-
SOUTHWEST WISCONSIN

CITY           SKY/WX    TMP DP  RH WIND       PRES   REMARKS
LA CROSSE      LGT SNOW  34  31  88 S12       29.86F FOG     WCI  25
SPARTA         LGT SNOW  32  30  94 S6        29.88F WCI  26
VIROQUA        CLOUDY    31  30  96 S10       29.86F WCI  22
BOSCOBEL       LGT SNOW  33  30  88 CALM      29.91F VSB 3/4
PRAIRIE DU CHI LGT SNOW  33  31  92 SE5       29.89F WCI  28
PLATTEVILLE    CLOUDY    31  31 100 SE8       29.90F VSB 1   WCI  24
$$

WIZ056-057-062-063-064-067-068-042100-
SOUTH CENTRAL WISCONSIN

CITY           SKY/WX    TMP DP  RH WIND       PRES   REMARKS
REEDSBURG      MIX PCPN  31  31 100 S5        29.90F WCI  26
BARABOO/DELLS  LGT SNOW  31  29  94 S7        29.89F VSB 1   WCI  24
LONE ROCK      SNOW      31  30  96 SE5       29.91F VSB 1/2 WCI  26
MINERAL POINT  LGT SNOW  32  32 100 S9        29.89F VSB 1   WCI  24
MADISON        SNOW      30  29  96 S7        29.92F VSB 1/2 WCI  23
MIDDLETON      CLOUDY    32  32 100 S5        29.92F VSB 3/4 WCI  27
WATERTOWN      SNOW      31  31 100 CALM      29.92F VSB 1/2
MONROE         LGT SNOW  30  30 100 S12       29.91F WCI  21
JANESVILLE     SNOW      32  32 100 CALM      29.95S VSB 1/2
$$

WIZ051-052-058>065-066-070>072-042100-
SOUTHEAST WISCONSIN

CITY           SKY/WX    TMP DP  RH WIND       PRES   REMARKS
MILWAUKEE      SNOW      34  31  88 S8        29.93F VSB 1/2 WCI  27
WAUKESHA       SNOW      30  28  93 SE5       29.94F VSB 1/2 WCI  25
MILWAUKEE/TIMM SNOW      32  30  93 CALM      29.95F VSB 1/2
RACINE         LGT SNOW  33  31  92 SE7       29.96F VSB 3/4 WCI  27
BURLINGTON     SNOW      31  31  98 CALM      29.94S VSB 1/2
KENOSHA        SNOW      33  31  92 S9        29.94F VSB 1/4 WCI  25
FOND DU LAC    SNOW      32  29  88 CALM      29.93F VSB 1/2
SHEBOYGAN      SNOW      32  31  96 SE3       29.92F VSB 1/2
WEST BEND      SNOW      32  32 100 CALM      29.92F VSB 1/2
JUNEAU         SNOW      30  29  96 SW3       29.94F VSB 1/2
$$

LSZ147-162-042100-
LAKE SUPERIOR

STATION/POSITION TIME  TEMP    WIND        PRES    WAVE
                       AIR SEA DIR/SP/G            HT/PER
                 (UTC) (F)     (DEG/KT/KT) (MB)    (FT/S)
DEVILS ISLAND    2000   33     160/ 10/ 15 1010.5F
PORT WING        1930   32     150/  6/  8 1009.5F
SAXON HARBOR     1930   33     190/  4/ 10 1010.2F
$$

LMZ867-665-643>646-042100-
LAKE MICHIGAN

STATION/POSITION TIME  TEMP    WIND        PRES    WAVE
                       AIR SEA DIR/SP/G            HT/PER
                 (UTC) (F)     (DEG/KT/KT) (MB)    (FT/S)
CHAMBERS ISLAND  1940   32     150/  2/  4 1014.2F
NORTHPORT PIER   1940   31        CALM     1014.9F
SISTER BAY       1808   32        CALM       N/A
ALGOMA LAKESHORE 1806           CALM  /  4   N/A
KEWAUNEE LAKESHO 2000   32        CALM     1013.7
SHEBOYGAN LAKESH 2000   34     160/ 12/ 13 1013.9F
PORT WASHINGTON  1930   36     170/ 12/ 17 1014.9F
MILWAUKEE LAKESH 2000   35     160/ 15/ 16   N/A
S MID LAKE BUOY  1950   36 48  140/ 14/ 17 1014.7F   2/ 4
KENOSHA   LAKESH 2000   34     160/ 16/ 19 1014.2
$$

TC  - TEMPERATURE IN CELSIUS
VSB - VISIBILITY IN STATUTE MILES
WCI - WIND CHILL INDEX
HX  - HEAT INDEX





USA.gov is the U.S. government's official web portal to all federal, state and local government web resources and services.